This is the latest recevied weather packets stored in our database for station/object KD9CCP. If no packets are shown the sender has not sent any weather packets the latest 10 day(s).
| Time | Temp. | Humidity | Pressure | Rain* | Wind** | Luminosity | Snow |
|---|---|---|---|---|---|---|---|
| 1777296126 | 9.44° C | 83% | 1012.5 hPa | 0 mm | - | 45 W/m² | - |
| 1777295823 | 9.44° C | 83% | 1012.3 hPa | 0 mm | - | 40 W/m² | - |
| 1777295521 | 9.44° C | 84% | 1012.7 hPa | 0 mm | - | 38 W/m² | - |
| 1777295218 | 9.44° C | 84% | 1013.1 hPa | 0 mm | - | 33 W/m² | - |
| 1777294916 | 8.89° C | 84% | 1013.3 hPa | 0 mm | - | 45 W/m² | - |
| 1777294610 | 8.89° C | 85% | 1013.4 hPa | 0 mm | - | 44 W/m² | - |
| 1777294307 | 8.89° C | 85% | 1013.3 hPa | 0 mm | - | 31 W/m² | - |
| 1777294004 | 8.89° C | 86% | 1013.2 hPa | 0 mm | - | 27 W/m² | - |
| 1777293700 | 8.89° C | 86% | 1013 hPa | 0 mm | - | 23 W/m² | - |
| 1777293395 | 8.89° C | 86% | 1012.8 hPa | 0 mm | - | 16 W/m² | - |
| 1777293091 | 8.89° C | 87% | 1013 hPa | 0 mm | - | 10 W/m² | - |
| 1777292790 | 8.89° C | 87% | 1013.1 hPa | 0 mm | - | 9 W/m² | - |
| 1777292486 | 8.33° C | 86% | 1013.1 hPa | 0 mm | - | 14 W/m² | - |
| 1777292183 | 8.33° C | 87% | 1013.1 hPa | 0 mm | - | 21 W/m² | - |
| 1777291879 | 8.33° C | 88% | 1013 hPa | 0 mm | - | 23 W/m² | - |
| 1777291576 | 8.33° C | 88% | 1013.5 hPa | 0 mm | - | 23 W/m² | - |
| 1777291273 | 8.33° C | 88% | 1013.6 hPa | 0 mm | - | 19 W/m² | - |
| 1777290970 | 8.33° C | 88% | 1014 hPa | 0 mm | - | 16 W/m² | - |
| 1777290667 | 8.33° C | 88% | 1014 hPa | 0 mm | - | 12 W/m² | - |
| 1777290363 | 8.33° C | 88% | 1013.9 hPa | 0 mm | - | 10 W/m² | - |
| 1777290058 | 8.33° C | 88% | 1014.1 hPa | 0 mm | - | 9 W/m² | - |
| 1777289755 | 8.33° C | 88% | 1014.3 hPa | 0 mm | - | 6 W/m² | - |
| 1777289451 | 8.33° C | 88% | 1014.4 hPa | 0 mm | - | 4 W/m² | - |
| 1777289148 | 8.33° C | 88% | 1014.5 hPa | 0 mm | - | 1 W/m² | - |
| 1777288844 | 8.33° C | 88% | 1014.9 hPa | 0 mm | - | 0 W/m² | - |
* Rain latest hour (hover to see other rain measurements)
** Current wind speed in m/s (hover to see current wind gust speed)